This is the latest recevied weather packets stored in our database for station/object KK4XZ. If no packets are shown the sender has not sent any weather packets the latest 1 day(s).
| Time | Temp. | Humidity | Pressure | Rain* | Wind** | Luminosity | Snow |
|---|---|---|---|---|---|---|---|
| 1778036725 | 19.44° C | 80% | 1017.2 hPa | 0 mm | 0.45 m/s, 172° | - | - |
| 1778036120 | 19.44° C | 78% | 1017.2 hPa | 0 mm | 0.45 m/s, 168° | - | - |
| 1778035536 | 19.44° C | 77% | 1017.3 hPa | 0 mm | 0.45 m/s, 181° | - | - |
| 1778034931 | 19.44° C | 77% | 1017.3 hPa | 0 mm | 0.89 m/s, 176° | - | - |
| 1778034325 | 19.44° C | 76% | 1017.3 hPa | 0 mm | 0.89 m/s, 190° | - | - |
| 1778033721 | 19.44° C | 77% | 1017.2 hPa | 0 mm | 0.45 m/s, 190° | - | - |
| 1778033116 | 19.44° C | 77% | 1017 hPa | 0 mm | 0.89 m/s, 173° | - | - |
| 1778032531 | 19.44° C | 77% | 1017 hPa | 0 mm | 0.89 m/s, 185° | - | - |
| 1778031926 | 19.44° C | 77% | 1016.9 hPa | 0 mm | 0.89 m/s, 190° | - | - |
| 1778031321 | 19.44° C | 76% | 1017.1 hPa | 0 mm | 0.89 m/s, 195° | - | - |
| 1778030716 | 19.44° C | 76% | 1016.9 hPa | 0 mm | 0.89 m/s, 185° | - | - |
| 1778030132 | 20° C | 76% | 1016.9 hPa | 0 mm | 0.89 m/s, 190° | - | - |
| 1778029527 | 20° C | 75% | 1017 hPa | 0 mm | 1.34 m/s, 177° | - | - |
| 1778028922 | 20° C | 74% | 1017 hPa | 0 mm | 1.34 m/s, 186° | - | - |
| 1778028317 | 20° C | 73% | 1017 hPa | 0 mm | 1.34 m/s, 182° | - | - |
| 1778027732 | 20° C | 74% | 1017.1 hPa | 0 mm | 0.89 m/s, 203° | - | - |
| 1778027127 | 20° C | 74% | 1017 hPa | 0 mm | 0.89 m/s, 185° | - | - |
| 1778026523 | 20° C | 72% | 1016.8 hPa | 0 mm | 0.89 m/s, 200° | - | - |
| 1778025918 | 20° C | 73% | 1016.9 hPa | 0 mm | 0.89 m/s, 194° | - | - |
| 1778025334 | 20.56° C | 72% | 1016.8 hPa | 0 mm | 0.89 m/s, 198° | - | - |
| 1778024728 | 20.56° C | 71% | 1016.9 hPa | 0 mm | 0.89 m/s, 185° | - | - |
| 1778024123 | 20.56° C | 71% | 1016.8 hPa | 0 mm | 0.89 m/s, 185° | - | - |
| 1778023517 | 21.11° C | 71% | 1016.8 hPa | 0 mm | 0.89 m/s, 199° | - | - |
| 1778022933 | 21.11° C | 70% | 1016.9 hPa | 0 mm | 0.89 m/s, 197° | - | - |
| 1778022328 | 21.11° C | 68% | 1016.9 hPa | 0 mm | 1.34 m/s, 188° | - | - |
* Rain latest hour (hover to see other rain measurements)
** Current wind speed in m/s (hover to see current wind gust speed)